Location: Slanting_Bridge
(35.6330°N, 80.9830°W)
Time: 20:15:10
(UTC-04:00)

Hamsat - Visible Passes

Search period start: 26 June 2017 00:00
Search period end: 06 July 2017 00:00
Orbit: 584 x 619 km, 97.7° (Epoch: 26 June)

Date Brightness Start Highest point End Pass type
(mag) Time Alt. Az. Time Alt. Az. Time Alt. Az.
26 Jun ? 05:18:03 10° NNE 05:22:12 66° E 05:26:20 10° S visible
27 Jun ? 05:29:44 10° N 05:33:54 87° WNW 05:38:05 10° SSW visible
28 Jun ? 05:41:29 10° N 05:45:37 62° WNW 05:49:44 10° SSW visible
29 Jun ? 04:19:37 10° ENE 04:21:20 12° E 04:23:03 10° ESE visible
30 Jun ? 04:30:23 10° NE 04:33:08 17° E 04:35:54 10° SE visible
01 Jul ? 04:41:34 10° NE 04:44:56 23° E 04:48:17 10° SSE visible
02 Jul ? 04:52:56 10° NNE 04:56:42 32° E 05:00:28 10° SSE visible
03 Jul ? 05:04:26 10° NNE 05:08:27 45° E 05:12:28 10° S visible
04 Jul ? 05:16:01 10° NNE 05:20:10 64° E 05:24:21 10° S visible
05 Jul ? 05:27:41 10° NNE 05:31:54 90° SE 05:36:07 10° SSW visible
